Weather History for Lexington, NE

Change the Weather History Date:

Friday, June 21, 2013

  Actual Average Record
Temperature  
Mean Temperature 82 °F -  
Max Temperature 97 °F 80 °F 97 °F (2013)
Min Temperature 68 °F 56 °F 44 °F (2000)
Cooling Degree Days 18    
Growing Degree Days 32 (Base 50)    
Moisture  
Dew Point 59 °F    
Average Humidity 43    
Maximum Humidity 68    
Minimum Humidity 24    
Precipitation  
Precipitation 0.00 in - - ()
Sea Level Pressure  
Sea Level Pressure 29.77 in    
Wind  
Wind Speed 15 mph (South)    
Max Wind Speed 30 mph    
Max Gust Speed 40 mph    
Visibility 10 miles    
Events Thunderstorm    
Averages and records for this station are not official NWS values.
T = Trace of Precipitation, MM = Missing Value Source: NWS Daily Summary

Daily Weather History Graph

Daily Weather History Graph

Search for Another Location

Airport:

Trip Planner

Search our weather history database for the weather conditions in past years. The results will help you decide how hot, cold, wet, or windy it might be!

Date:

Astronomy

Jun. 21, 2013 Rise Set
Actual Time 6:07 AM CDT 9:14 PM CDT
Civil Twilight 5:34 AM CDT 9:47 PM CDT
Nautical Twilight 4:51 AM CDT 10:30 PM CDT
Astronomical Twilight 4:01 AM CDT 11:20 PM CDT
Moon 7:26 PM CDT (6/21) 4:25 AM CDT (6/21)
Length of Visible Light 16h 13m
Length of Day
15h 06m
Waxing Gibbous, 95% of the Moon is Illuminated
Jun 21
Waxing Gibbous
Jun 23
Full
Jun 29
Last Quarter
Jul 8
New
Jul 15
First Quarter

Hourly Weather History & Observations

Time (CDT) Temp. Heat Index Dew Point Humidity Pressure Visibility Wind Dir Wind Speed Gust Speed Precip Events Conditions
12:15 AM 83.1 °F 84.2 °F 63.5 °F 51% 29.80 in 10.0 mi South 9.2 mph 16.1 mph N/A   Clear
12:35 AM 83.8 °F 85.1 °F 64.2 °F 51% 29.80 in 10.0 mi South 13.8 mph - N/A   Clear
12:55 AM 83.5 °F 85.3 °F 65.5 °F 54% 29.79 in 10.0 mi South 10.4 mph - N/A   Clear
1:15 AM 82.8 °F 84.9 °F 66.2 °F 57% 29.79 in 10.0 mi South 9.2 mph 16.1 mph N/A   Clear
1:35 AM 82.8 °F 84.7 °F 65.5 °F 56% 29.80 in 10.0 mi South 15.0 mph 21.9 mph N/A   Clear
1:55 AM 82.0 °F 83.8 °F 64.8 °F 56% 29.79 in 10.0 mi South 15.0 mph - N/A   Clear
2:15 AM 81.1 °F 82.8 °F 64.4 °F 57% 29.78 in 10.0 mi South 13.8 mph - N/A   Clear
2:35 AM 79.7 °F - 64.0 °F 59% 29.78 in 10.0 mi South 10.4 mph - N/A   Clear
2:55 AM 78.8 °F - 63.9 °F 60% 29.77 in 10.0 mi SSE 9.2 mph - N/A   Clear
3:15 AM 77.5 °F - 63.9 °F 63% 29.76 in 10.0 mi SSE 8.1 mph - N/A   Clear
3:35 AM 76.6 °F - 63.5 °F 64% 29.76 in 10.0 mi South 8.1 mph - N/A   Clear
3:55 AM 79.9 °F - 59.0 °F 49% 29.76 in 10.0 mi South 20.7 mph 28.8 mph N/A Thunderstorm Clear
4:15 AM 83.3 °F - 48.6 °F 30% 29.78 in 10.0 mi WSW 10.4 mph 13.8 mph N/A   Clear
4:35 AM 82.8 °F - 47.7 °F 29% 29.78 in 10.0 mi SSW 8.1 mph - N/A   Clear
4:55 AM 80.8 °F 80.7 °F 55.4 °F 42% 29.78 in 10.0 mi South 17.3 mph 20.7 mph N/A   Clear
5:15 AM 80.6 °F 81.1 °F 59.0 °F 48% 29.77 in 10.0 mi South 19.6 mph 26.5 mph N/A   Clear
5:35 AM 79.9 °F - 58.8 °F 48% 29.76 in 10.0 mi South 16.1 mph 24.2 mph N/A   Clear
5:55 AM 83.3 °F 82.2 °F 54.3 °F 37% 29.76 in 10.0 mi South 19.6 mph 29.9 mph N/A   Clear
6:15 AM 81.9 °F 81.2 °F 54.9 °F 39% 29.76 in 10.0 mi South 18.4 mph 26.5 mph N/A   Clear
6:35 AM 81.3 °F 81.0 °F 55.6 °F 41% 29.76 in 10.0 mi South 19.6 mph 25.3 mph N/A   Clear
6:55 AM 80.6 °F 80.6 °F 56.3 °F 43% 29.76 in 10.0 mi South 21.9 mph 27.6 mph N/A   Clear
7:15 AM 79.2 °F - 57.6 °F 47% 29.76 in 10.0 mi South 20.7 mph 27.6 mph N/A   Clear
7:35 AM 77.7 °F - 60.1 °F 54% 29.76 in 10.0 mi South 19.6 mph 25.3 mph N/A   Clear
7:55 AM 76.3 °F - 62.6 °F 62% 29.77 in 10.0 mi SSE 18.4 mph 25.3 mph N/A   Clear
8:15 AM 76.3 °F - 63.1 °F 64% 29.78 in 10.0 mi SSE 16.1 mph 25.3 mph N/A   Clear
8:35 AM 75.7 °F - 62.1 °F 62% 29.78 in 10.0 mi South 15.0 mph - N/A   Clear
8:55 AM 75.4 °F - 62.1 °F 63% 29.78 in 10.0 mi South 12.7 mph - N/A   Clear
9:15 AM 77.7 °F - 61.2 °F 57% 29.78 in 10.0 mi South 15.0 mph - N/A   Clear
9:35 AM 78.8 °F - 60.4 °F 53% 29.77 in 10.0 mi South 17.3 mph 24.2 mph N/A   Clear
9:55 AM 80.1 °F 80.9 °F 59.9 °F 50% 29.77 in 10.0 mi SSW 15.0 mph 19.6 mph N/A   Clear
10:15 AM 81.7 °F 82.0 °F 59.4 °F 47% 29.77 in 10.0 mi SSW 10.4 mph 26.5 mph N/A   Clear
10:35 AM 83.3 °F 83.1 °F 58.6 °F 43% 29.77 in 10.0 mi SSW 11.5 mph - N/A   Clear
10:55 AM 84.6 °F 84.0 °F 58.6 °F 41% 29.76 in 10.0 mi SW 16.1 mph - N/A   Clear
11:15 AM 86.0 °F 84.9 °F 57.0 °F 37% 29.76 in 10.0 mi SSW 20.7 mph 25.3 mph N/A   Clear
11:35 AM 87.3 °F 86.3 °F 58.1 °F 37% 29.77 in 10.0 mi SSW 15.0 mph 19.6 mph N/A   Clear
11:55 AM 88.7 °F 87.5 °F 58.1 °F 35% 29.78 in 10.0 mi SSW 15.0 mph 18.4 mph N/A   Clear
12:15 PM 90.0 °F 88.8 °F 57.9 °F 34% 29.77 in 10.0 mi SSW 10.4 mph 19.6 mph N/A   Clear
12:35 PM 91.0 °F 90.0 °F 58.3 °F 33% 29.77 in 10.0 mi SSW 9.2 mph 18.4 mph N/A   Clear
12:55 PM 91.0 °F 91.2 °F 61.2 °F 37% 29.77 in 10.0 mi SSE 20.7 mph 24.2 mph N/A   Clear
1:15 PM 92.3 °F 92.0 °F 60.4 °F 34% 29.77 in 10.0 mi SSE 16.1 mph - N/A   Clear
1:35 PM 93.7 °F 93.3 °F 60.1 °F 32% 29.76 in 10.0 mi SSE 16.1 mph 25.3 mph N/A   Clear
1:55 PM 94.8 °F 94.2 °F 59.2 °F 30% 29.76 in 10.0 mi South 18.4 mph 25.3 mph N/A   Clear
2:15 PM 94.8 °F 94.2 °F 59.2 °F 30% 29.76 in 10.0 mi SSE 21.9 mph 29.9 mph N/A   Clear
2:35 PM 95.4 °F 94.6 °F 58.3 °F 29% 29.76 in 10.0 mi South 21.9 mph 33.4 mph N/A   Clear
2:55 PM 95.2 °F 94.3 °F 58.5 °F 29% 29.76 in 10.0 mi South 25.3 mph 32.2 mph N/A   Clear
3:15 PM 95.9 °F 94.9 °F 58.3 °F 28% 29.76 in 10.0 mi South 24.2 mph 32.2 mph N/A   Clear
3:35 PM 96.4 °F 95.7 °F 58.1 °F 28% 29.76 in 10.0 mi South 21.9 mph 31.1 mph N/A   Clear
3:55 PM 96.8 °F 95.8 °F 57.2 °F 27% 29.76 in 10.0 mi South 21.9 mph 31.1 mph N/A   Clear
4:15 PM 96.8 °F 95.8 °F 57.7 °F 27% 29.76 in 10.0 mi South 19.6 mph 28.8 mph N/A   Clear
4:35 PM 97.2 °F 96.8 °F 58.6 °F 28% 29.75 in 10.0 mi South 19.6 mph 27.6 mph N/A   Clear
4:55 PM 97.0 °F 96.5 °F 58.6 °F 28% 29.75 in 10.0 mi South 20.7 mph - N/A   Clear
5:15 PM 97.7 °F 96.7 °F 57.6 °F 26% 29.73 in 10.0 mi South 18.4 mph 26.5 mph N/A   Clear
5:35 PM 97.3 °F 96.6 °F 58.6 °F 27% 29.73 in 10.0 mi South 16.1 mph 25.3 mph N/A   Clear
5:55 PM 97.7 °F 96.3 °F 56.3 °F 25% 29.71 in 10.0 mi SSE 12.7 mph 24.2 mph N/A   Clear
6:15 PM 97.7 °F 95.9 °F 55.4 °F 24% 29.71 in 10.0 mi South 20.7 mph - N/A   Clear
6:35 PM 96.1 °F 95.6 °F 58.6 °F 29% 29.71 in 10.0 mi SSE 24.2 mph 31.1 mph N/A   Clear
6:55 PM 93.2 °F 92.9 °F 59.9 °F 33% 29.71 in 10.0 mi South 21.9 mph 29.9 mph N/A   Clear
7:15 PM 91.9 °F 91.8 °F 60.3 °F 35% 29.73 in 10.0 mi SSE 18.4 mph 26.5 mph N/A   Clear
7:35 PM 91.0 °F 90.9 °F 60.6 °F 36% 29.74 in 10.0 mi SSE 18.4 mph 27.6 mph N/A   Clear
7:55 PM 89.6 °F 90.1 °F 62.2 °F 40% 29.75 in 10.0 mi SSE 13.8 mph - N/A   Clear
8:15 PM 89.6 °F 90.1 °F 62.6 °F 40% 29.75 in 10.0 mi SE 13.8 mph 18.4 mph N/A   Clear
8:35 PM 89.2 °F 89.9 °F 62.6 °F 41% 29.75 in 10.0 mi SE 10.4 mph 19.6 mph N/A   Clear
8:55 PM 88.2 °F 88.7 °F 62.4 °F 42% 29.75 in 10.0 mi SSE 12.7 mph - N/A   Clear
9:15 PM 87.3 °F 87.5 °F 61.9 °F 42% 29.75 in 10.0 mi SSE 11.5 mph - N/A   Clear
9:35 PM 86.4 °F 86.5 °F 61.7 °F 43% 29.75 in 10.0 mi SSE 15.0 mph - N/A   Clear
9:55 PM 87.1 °F 86.5 °F 59.2 °F 39% 29.75 in 10.0 mi SSE 17.3 mph 23.0 mph N/A   Clear
10:15 PM 86.0 °F 85.7 °F 59.7 °F 41% 29.77 in 10.0 mi South 17.3 mph 25.3 mph N/A   Clear
10:35 PM 78.8 °F - 53.6 °F 42% 29.87 in 5.0 mi NW 29.9 mph 40.3 mph N/A   Haze
10:55 PM 72.7 °F - 55.0 °F 54% 29.90 in 10.0 mi North 25.3 mph 35.7 mph N/A   Overcast
11:15 PM 70.0 °F - 56.3 °F 62% 29.89 in 10.0 mi North 21.9 mph 27.6 mph N/A   Overcast
11:35 PM 68.9 °F - 57.2 °F 66% 29.87 in 10.0 mi NNE 15.0 mph 24.2 mph N/A   Scattered Clouds
11:55 PM 68.9 °F - 57.7 °F 68% 29.87 in 10.0 mi NE 17.3 mph 23.0 mph N/A Thunderstorm Clear